Location: Godiavel Galaoual
(15.2485°N, 12.6604°W)
Time: 01:43:04
(UTC+00:00)

Transit 4A - Pass Details

Date: 13 June 2021
Orbit: 872 x 972 km, 66.8° (Epoch: 29 July)

Event Time Altitude Azimuth Distance (km) Brightness Sun altitude
Rises 10:12:18 0° 186° (S) 3,618 10.8 51.9°
Reaches altitude 10° 10:14:59 10° 179° (S) 2,661 10.3 52.5°
Maximum altitude 10:20:50 45° 109° (ESE) 1,251 10.0 53.8°
Drops below altitude 10° 10:26:32 10° 38° (NE) 2,598 10.9 55.1°
Sets 10:29:07 0° 32° (NNE) 3,524 11.3 55.7°
